Stations météo

Publicité
Socoa, France (7600): Température de l'air & dewpoint: 16.09.2018 06:00:00 - 22.09.2018 06:00:00 (CEST)Socoa, France (7600): Vitesse du vent & gusts: 16.09.2018 06:00:00 - 22.09.2018 06:00:00 (CEST)Socoa, France (7600): Direction du vent: 16.09.2018 06:00:00 - 22.09.2018 06:00:00 (CEST)Socoa, France (7600): reduced air pressure: 16.09.2018 06:00:00 - 22.09.2018 06:00:00 (CEST)Socoa, France (7600): visibility: 16.09.2018 06:00:00 - 22.09.2018 06:00:00 (CEST)Socoa, France (7600): Quantités de précipitations: 16.09.2018 06:00:00 - 22.09.2018 06:00:00 (CEST)
Date & Time tt [°C] td [°C] ff [km/h] ff [knt] fx [km/h] fx [knt] dd ppp [hPa] vv [km] rr [mm]
22.09.2018 06:00:00 17,9 16,4 9 5 15 8 ESE 1023,4 - 0,0
22.09.2018 05:00:00 18,3 16,6 8 4 19 10 ESE 1023,8 - 0,0
22.09.2018 04:00:00 18,5 17,0 14 8 22 12 SE 1024,2 - 0,0
22.09.2018 03:00:00 18,6 16,9 9 5 14 8 E 1024,6 - 0,0
22.09.2018 02:00:00 18,5 16,7 8 4 12 6 E 1024,9 15 0,0
22.09.2018 01:00:00 18,7 16,8 5 3 10 6 SE 1025,1 - 0,0
22.09.2018 00:00:00 18,6 16,6 9 5 20 11 ESE 1025,3 - 0,0
21.09.2018 23:00:00 18,5 16,7 15 8 22 12 ENE 1024,9 6 0,0
21.09.2018 22:00:00 18,8 17,3 18 10 26 14 NNE 1025,0 - 0,4
21.09.2018 21:00:00 19,3 17,6 16 9 24 13 ENE 1024,1 - 0,0
21.09.2018 20:00:00 19,4 18,1 12 6 27 15 N 1024,0 15 0,6
21.09.2018 19:00:00 19,6 18,3 19 10 33 18 NNW 1023,7 - 0,4
21.09.2018 18:00:00 20,8 18,2 23 12 38 20 N 1023,1 - 0,0
21.09.2018 17:00:00 22,7 18,5 28 15 40 21 W 1022,8 15 0,0
21.09.2018 16:00:00 23,9 18,1 28 15 41 22 WNW 1022,2 - 0,0
21.09.2018 15:00:00 25,0 16,7 21 11 28 15 W 1021,6 - 0,0
21.09.2018 14:00:00 25,7 16,8 14 8 19 11 W 1021,8 15 0,0
21.09.2018 13:00:00 25,3 17,5 15 8 22 12 W 1022,0 - 0,0
21.09.2018 12:00:00 24,9 17,4 8 4 13 7 W 1021,8 - 0,0
21.09.2018 11:00:00 22,3 18,7 6 3 14 7 WSW 1021,3 10 0,0
21.09.2018 10:00:00 20,0 18,1 9 5 14 7 S 1020,6 - 0,0
21.09.2018 09:00:00 18,6 17,3 2 1 15 8 SW 1019,9 - 0,0
21.09.2018 08:00:00 18,1 16,9 13 7 15 8 S 1019,0 - 0,0
21.09.2018 07:00:00 17,9 16,6 9 5 14 7 SSW 1018,4 - 0,0
21.09.2018 06:00:00 18,2 16,7 9 5 13 7 S 1018,1 - 0,0
21.09.2018 05:00:00 18,4 16,9 8 4 11 6 SSW 1018,1 - 0,0
21.09.2018 04:00:00 18,8 17,1 8 5 11 6 SSW 1018,0 - 0,0
21.09.2018 03:00:00 19,4 17,5 7 4 12 7 WSW 1018,1 - 0,0
21.09.2018 02:00:00 20,0 17,8 10 6 16 8 SW 1017,9 15 0,0
21.09.2018 01:00:00 20,3 18,2 11 6 16 9 SW 1018,3 - 0,0
21.09.2018 00:00:00 20,4 18,2 10 6 18 10 SW 1018,5 - 0,0
20.09.2018 23:00:00 20,8 18,6 10 5 21 11 WSW 1018,5 - 0,0
20.09.2018 22:00:00 21,3 18,7 18 10 24 13 W 1018,4 - 0,0
20.09.2018 21:00:00 21,7 18,9 11 6 16 9 WNW 1017,7 - 0,0
20.09.2018 20:00:00 21,6 18,4 14 8 16 9 NW 1017,2 - 0,0
20.09.2018 19:00:00 23,3 18,6 8 5 19 10 NNW 1017,0 - 0,0
20.09.2018 18:00:00 24,8 19,0 10 6 15 8 NNW 1016,7 - 0,0
20.09.2018 17:00:00 24,9 19,0 11 6 17 9 N 1017,0 18 0,0
20.09.2018 16:00:00 25,5 18,4 6 4 11 6 N 1017,2 - 0,0
20.09.2018 15:00:00 25,3 18,0 7 4 12 6 NW 1017,8 - 0,0
20.09.2018 14:00:00 25,5 17,9 10 5 15 8 NNW 1018,7 14 0,0
20.09.2018 13:00:00 24,8 18,3 10 6 14 8 N 1019,4 - 0,0
20.09.2018 12:00:00 24,8 18,0 9 5 13 7 N 1019,8 - 0,0
20.09.2018 11:00:00 23,6 17,8 6 3 12 6 NNE 1020,1 14 0,0
20.09.2018 10:00:00 21,4 17,6 3 1 7 4 ESE 1020,3 - 0,0
20.09.2018 09:00:00 18,0 16,7 5 3 9 5 SSE 1020,7 - 0,0
20.09.2018 08:00:00 17,3 16,0 7 4 10 5 SE 1020,9 15 0,0
20.09.2018 07:00:00 17,7 16,2 5 3 11 6 ESE 1021,1 - 0,0
20.09.2018 06:00:00 18,1 16,6 6 3 9 5 SSE 1021,5 - 0,0
20.09.2018 05:00:00 18,6 17,1 4 2 6 4 SSE 1021,9 18 0,0
20.09.2018 04:00:00 19,0 17,1 5 3 6 4 SE 1022,3 - 0,0
20.09.2018 03:00:00 19,3 17,3 4 2 6 4 ESE 1022,6 - 0,0
20.09.2018 02:00:00 19,5 17,3 6 3 9 5 S 1022,9 18 0,0
20.09.2018 01:00:00 19,4 17,4 7 4 11 6 S 1022,9 - 0,0
20.09.2018 00:00:00 19,0 17,3 9 5 10 5 S 1023,1 - 0,0
19.09.2018 23:00:00 19,0 17,1 4 2 7 4 SSW 1022,9 18 0,0
19.09.2018 22:00:00 19,5 17,3 4 2 7 4 SW 1022,5 - 0,0
19.09.2018 21:00:00 20,3 17,3 2 1 6 3 SSW 1022,1 - 0,0
19.09.2018 20:00:00 21,6 17,8 4 2 11 6 NNW 1021,9 18 0,0
19.09.2018 19:00:00 22,5 17,6 7 4 16 8 NNW 1021,8 - 0,0
19.09.2018 18:00:00 24,5 18,9 10 6 18 10 NNW 1021,4 - 0,0
19.09.2018 17:00:00 24,3 19,1 14 8 23 12 N 1021,3 18 0,0
19.09.2018 16:00:00 26,1 18,5 10 5 15 8 NW 1021,2 - 0,0
19.09.2018 15:00:00 25,6 18,8 11 6 15 8 NNW 1021,3 - 0,0
19.09.2018 14:00:00 25,5 18,4 11 6 15 8 NNW 1021,4 - 0,0
19.09.2018 13:00:00 24,8 18,7 8 4 11 6 N 1021,8 - 0,0
19.09.2018 12:00:00 24,9 18,8 7 4 10 5 NW 1022,2 - 0,0
19.09.2018 11:00:00 23,0 18,1 5 3 7 4 N 1022,1 16 0,0
19.09.2018 10:00:00 21,6 17,4 2 1 9 5 ENE 1021,7 - 0,0
19.09.2018 09:00:00 18,9 17,4 4 2 18 10 E 1021,1 - 0,0
19.09.2018 08:00:00 18,1 16,6 13 7 16 9 ESE 1020,4 - 0,0
19.09.2018 07:00:00 18,1 16,4 6 4 13 7 ESE 1020,1 - 0,0
19.09.2018 06:00:00 18,4 16,7 10 5 16 9 ESE 1019,9 - 0,0
19.09.2018 05:00:00 18,7 16,8 9 5 11 6 SE 1020,2 - 0,0
19.09.2018 04:00:00 18,4 16,4 6 4 9 5 S 1020,7 - 0,0
19.09.2018 03:00:00 18,0 16,2 6 3 10 5 SSE 1020,8 - 0,0
19.09.2018 02:00:00 18,2 16,4 6 3 9 5 S 1020,7 20 0,0
19.09.2018 01:00:00 18,6 16,7 9 5 12 7 S 1020,5 - 0,0
19.09.2018 00:00:00 19,0 17,1 9 5 13 7 SW 1020,7 - 0,0
18.09.2018 23:00:00 19,7 17,5 8 5 13 7 SSW 1020,3 - 0,0
18.09.2018 22:00:00 20,8 18,2 9 5 18 10 SW 1019,8 - 0,0
18.09.2018 21:00:00 21,4 18,8 15 8 21 11 W 1019,1 - 0,0
18.09.2018 20:00:00 21,9 18,5 16 9 21 11 WNW 1018,4 25 0,0
18.09.2018 19:00:00 23,7 18,6 8 4 12 6 W 1017,8 - 0,0
18.09.2018 18:00:00 24,5 18,9 5 3 13 7 WNW 1017,3 - 0,0
18.09.2018 17:00:00 23,9 19,4 7 4 24 13 NNW 1017,4 15 0,0
18.09.2018 16:00:00 23,7 19,2 13 7 22 12 NNW 1017,3 - 0,0
18.09.2018 15:00:00 23,9 19,2 15 8 22 12 NNW 1017,4 - 0,0
18.09.2018 14:00:00 24,2 18,8 18 10 22 12 NNW 1017,5 - 0,0
18.09.2018 13:00:00 23,8 19,3 12 6 18 10 WNW 1017,3 - 0,0
18.09.2018 12:00:00 24,1 19,8 15 8 18 10 W 1017,6 - 0,0
18.09.2018 11:00:00 23,9 19,2 10 5 12 6 W 1017,5 12 0,0
18.09.2018 10:00:00 23,4 18,9 6 4 11 6 W 1017,2 - 0,0
18.09.2018 09:00:00 19,6 17,4 4 2 9 5 S 1016,8 - 0,0
18.09.2018 08:00:00 18,7 16,7 7 4 10 5 SE 1016,1 15 0,0
18.09.2018 07:00:00 19,3 16,7 6 4 12 7 SSW 1015,9 - 0,0
18.09.2018 06:00:00 20,1 16,5 8 4 20 11 SW 1015,8 - 0,0
18.09.2018 05:00:00 21,0 17,0 16 9 29 16 WSW 1015,9 20 0,0
18.09.2018 04:00:00 21,6 18,4 17 9 26 14 WSW 1015,7 - 0,0
18.09.2018 03:00:00 21,9 18,7 15 8 23 12 SW 1015,7 - 0,0
18.09.2018 02:00:00 22,1 17,5 14 8 37 20 WSW 1015,6 - 0,0
18.09.2018 01:00:00 23,1 19,3 29 16 36 20 W 1015,2 - 0,0
18.09.2018 00:00:00 23,7 16,0 14 8 26 14 S 1014,8 - 0,0
17.09.2018 23:00:00 24,3 17,3 7 4 38 20 S 1015,2 - 0,0
17.09.2018 22:00:00 24,2 18,6 36 20 65 35 W 1015,3 - 0,0
17.09.2018 21:00:00 27,1 18,1 5 3 13 7 SE 1012,8 - 0,0
17.09.2018 20:00:00 30,0 17,5 9 5 14 7 S 1012,3 18 0,0
17.09.2018 19:00:00 33,5 15,0 7 4 22 12 SSE 1011,8 - 0,0
17.09.2018 18:00:00 34,5 14,9 14 7 28 15 S 1012,3 - 0,0
17.09.2018 17:00:00 35,0 15,8 9 5 34 18 SSE 1013,0 - 0,0
17.09.2018 16:00:00 33,7 15,7 15 8 34 19 SSE 1013,6 - 0,0
17.09.2018 15:00:00 33,6 16,5 18 10 44 24 SSE 1014,1 - 0,0
17.09.2018 14:00:00 32,7 16,5 21 11 45 25 S 1014,8 - 0,0
17.09.2018 13:00:00 31,9 16,6 19 10 47 25 S 1015,2 - 0,0
17.09.2018 12:00:00 31,0 16,2 10 5 34 18 S 1015,6 - 0,0
17.09.2018 11:00:00 24,6 18,8 10 5 28 15 ESE 1016,0 15 0,0
17.09.2018 10:00:00 21,3 18,3 3 2 10 5 N 1016,4 - 0,0
17.09.2018 09:00:00 19,3 18,0 3 1 13 7 NNE 1016,9 - 0,0
17.09.2018 08:00:00 18,9 17,4 10 5 15 8 ESE 1017,3 - 0,0
17.09.2018 07:00:00 19,1 17,6 8 4 16 9 E 1017,8 - 0,0
17.09.2018 06:00:00 19,5 17,6 11 6 15 8 ESE 1018,3 - 0,0
17.09.2018 05:00:00 19,8 17,9 9 5 13 7 E 1018,8 12 0,0
17.09.2018 04:00:00 20,2 17,8 6 3 8 5 ESE 1019,4 - 0,0
17.09.2018 03:00:00 20,2 17,8 4 2 12 6 S 1020,0 - 0,0
17.09.2018 02:00:00 20,1 18,0 9 5 12 6 S 1020,6 12 0,0
17.09.2018 01:00:00 20,2 18,1 9 5 13 7 SSW 1021,0 - 0,0
17.09.2018 00:00:00 20,4 18,3 9 5 15 8 SSW 1021,6 - 0,0
16.09.2018 23:00:00 20,9 18,1 8 5 13 7 SSW 1021,8 18 0,0
16.09.2018 22:00:00 21,0 18,0 6 4 13 7 SW 1021,6 - 0,0
16.09.2018 21:00:00 21,2 18,2 8 5 18 10 WSW 1021,4 - 0,0
16.09.2018 20:00:00 21,5 18,3 14 8 19 11 W 1021,3 15 0,0
16.09.2018 19:00:00 21,7 18,5 16 9 25 13 W 1021,2 - 0,0
16.09.2018 18:00:00 21,9 18,3 20 11 26 14 WNW 1021,1 - 0,0
16.09.2018 17:00:00 22,5 18,7 20 11 24 13 W 1021,0 12 0,0
16.09.2018 16:00:00 23,3 19,7 18 10 29 16 W 1021,1 - 0,0
16.09.2018 15:00:00 23,5 19,2 23 12 29 16 W 1021,3 - 0,0
16.09.2018 14:00:00 23,5 19,4 22 12 31 17 W 1021,3 12 0,0
16.09.2018 13:00:00 23,4 19,3 24 13 34 18 WNW 1021,3 - 0,0
16.09.2018 12:00:00 23,3 18,6 22 12 28 15 WNW 1021,1 - 0,0
16.09.2018 11:00:00 22,8 18,6 19 10 29 16 W 1020,6 12 0,0
16.09.2018 10:00:00 21,2 18,0 17 9 24 13 W 1020,6 - 0,0
16.09.2018 09:00:00 18,8 17,5 16 9 21 11 WSW 1020,4 - 0,0
16.09.2018 08:00:00 15,4 14,1 6 4 9 5 W 1019,5 - 0,0
16.09.2018 07:00:00 15,7 14,4 3 2 9 5 SSW 1018,8 - 0,2
16.09.2018 06:00:00 15,9 14,6 5 3 9 5 SW 1018,5 - 0,0

tt = Température de l'air
td = dewpoint
ff = Vitesse du vent
fx = gusts
dd = Direction du vent
ppp = reduced air pressure
vv = visibility
rr = Quantités de précipitations

stations d'obs. à proximité